Lapse_Rate
3.7 2.4 2.4 2.7 2.9 4.6 3.8 2.8 2.3 2.5 3.1 3.9 4.0 4.1 3.4 3.1 2.8 4.7 4.2 4.2 4.7 4.6 4.6 5.3 4.9 4.2 3.9 4.3 4.0 4.0 3.7 3.8 4.8 4.1 5.4 4.5 3.6 3.6 4.3 4.5 5.0 4.4 4.6
0.9 4.1 3.4 3.1 3.7 5.1 4.2 3.8 2.6 3.3 3.9 4.8 4.6 4.4 4.0 3.4 2.9 4.2 4.3 4.4 4.6 4.5 4.6 4.6 4.6 4.7 4.5 4.4 4.3 4.2 4.8 4.5 5.2 5.4 4.7 4.6 4.6 3.2 3.7 3.9 4.4 5.3 5.3
-0.1 4.9 5.1 3.9 4.5 4.9 5.2 4.5 3.6 4.0 4.4 4.9 4.2 4.2 4.0 4.1 3.3 3.8 4.2 3.9 4.3 4.3 4.2 4.2 4.3 4.6 4.7 4.4 5.0 5.2 4.7 5.3 4.6 4.9 4.6 3.6 3.2 3.7 4.2 4.0 4.1 4.2 5.3
-1.0 -0.3 0.9 4.2 3.9 5.1 5.4 4.9 4.8 5.0 4.7 4.8 5.0 4.5 4.4 4.3 4.0 4.1 4.2 4.3 4.1 4.3 4.3 4.5 4.2 4.2 4.8 4.8 5.0 4.9 5.5 5.0 4.3 4.3 4.0 3.6 3.6 3.7 3.8 5.1 5.1 4.9 5.1
0.3 -1.5 -1.2 -0.0 2.0 2.8 3.1 5.3 5.2 5.5 5.4 5.0 4.7 4.3 4.2 3.4 1.7 3.8 4.0 4.0 3.9 4.1 4.0 4.2 4.0 3.8 2.5 3.9 5.3 5.3 5.0 5.1 4.2 4.2 4.0 4.2 4.5 5.1 5.5 5.4 5.8 5.5 3.1
1.8 1.2 0.2 -1.0 -1.2 -0.8 -0.5 0.1 1.1 0.7 0.4 -0.2 -0.1 -0.3 -0.6 -1.9 -4.0 -3.2 0.1 4.1 4.1 4.2 4.2 4.2 4.5 1.2 0.9 -1.7 -1.0 -2.2 0.3 5.5 4.5 4.9 5.4 5.1 5.4 5.5 2.5 3.1 3.3 3.9 4.0
1.9 2.1 2.9 1.2 -1.2 -2.1 -2.6 -2.4 -2.4 -2.3 -2.5 -3.2 -3.3 -3.3 -3.6 -3.4 -3.9 -3.2 -2.7 1.2 0.5 -0.3 -0.4 1.3 0.4 -1.8 -1.8 -0.0 -3.1 -3.7 -4.0 -4.2 -4.8 0.6 3.7 2.6 0.1 -3.5 -2.7 -0.2 1.6 1.9 1.4
1.5 2.2 2.3 3.4 1.7 -0.7 -1.7 -2.1 -3.5 -3.5 -3.2 -4.0 -4.0 -3.6 -2.8 -2.9 -3.6 -3.5 -3.6 -3.3 -4.1 -4.3 -4.0 -3.8 -3.5 -3.7 -4.1 -2.1 -2.9 -4.1 -4.9 -5.2 -5.1 -4.6 -4.8 -5.2 -5.2 -5.2 -4.4 -2.3 -1.1 -0.5 -2.6
2.2 1.4 1.5 2.8 2.8 2.0 1.0 1.0 0.5 -1.6 -1.7 -3.0 -2.6 -2.3 -2.5 -2.9 -3.6 -3.7 -3.7 -4.1 -4.7 -5.2 -5.1 -4.7 -4.5 -4.5 -4.5 -2.7 -3.0 -4.3 -5.2 -5.3 -5.0 -4.6 -4.5 -4.6 -4.3 -4.4 -4.3 -2.5 -1.7 -0.4 -0.2
3.0 2.7 1.2 1.6 1.9 2.0 1.4 2.1 1.4 0.6 0.2 0.3 -0.2 -1.1 -0.0 -1.4 -1.1 -1.7 -1.5 -2.7 -3.7 -4.1 -3.9 -4.5 -4.6 -4.4 -4.4 -3.3 -1.7 -2.6 -3.7 -3.8 -3.0 -3.4 -2.7 -2.3 -2.0 -1.6 -2.9 -3.2 -3.1 -2.2 -0.7
2.8 2.2 1.6 2.1 1.0 1.9 1.2 1.8 1.3 1.0 0.7 0.3 -0.3 -0.5 -0.5 0.1 0.2 -0.1 0.1 -0.3 -1.4 -2.0 -1.8 -1.4 -1.5 -1.7 -1.8 -2.1 -1.6 -0.9 -1.0 -1.4 -0.8 -0.6 -0.5 -0.8 -0.5 -1.1 -1.6 -2.5 -3.4 -3.1 -2.1
2.6 1.0 0.8 1.7 1.3 1.2 0.8 1.6 2.0 1.5 0.8 0.6 0.2 0.4 0.3 -0.1 0.7 0.5 -0.2 0.1 0.8 -0.1 -1.0 -0.1 -0.5 1.6 -0.8 -1.7 -0.7 0.4 0.4 0.8 0.9 0.3 0.2 0.1 0.1 0.1 -2.5 -2.1 -1.2 -1.2 -0.5
3.6 2.6 2.0 1.6 1.1 1.0 1.0 1.5 1.8 1.0 1.8 1.6 1.6 1.7 1.9 1.6 2.1 1.6 1.3 0.8 0.5 0.0 3.3 0.5 1.3 1.5 0.3 1.6 2.8 2.4 2.4 2.3 1.8 1.5 1.5 1.9 1.4 1.1 1.5 1.2 1.0 1.0 1.5
5.3 4.3 3.6 2.8 2.4 2.3 1.8 1.7 2.5 2.2 2.0 2.6 2.6 2.5 2.9 3.4 3.8 3.2 2.7 3.0 3.3 2.1 1.6 2.4 2.8 2.7 2.7 2.9 2.9 3.2 3.4 3.3 3.2 3.2 3.5 2.7 2.2 1.5 1.4 0.0 0.1 -0.5 -0.6
6.6 6.8 5.0 3.9 3.1 2.7 2.5 3.0 2.7 3.1 3.2 2.3 2.6 3.0 3.3 4.2 5.4 5.2 4.4 3.8 3.1 2.8 2.8 3.1 3.1 2.9 2.4 2.1 2.5 2.9 3.2 3.7 3.0 3.1 3.0 1.9 1.1 1.0 2.0 2.4 2.6 2.5 2.1
6.1 5.9 6.0 5.7 4.5 4.0 3.2 2.7 4.4 4.2 4.4 4.5 4.5 3.1 4.2 6.0 6.2 6.0 6.2 6.0 5.8 5.3 3.6 3.5 3.5 3.1 2.4 2.4 2.3 2.3 2.7 3.3 3.7 3.8 2.9 3.2 3.0 3.1 3.6 3.6 3.5 3.0 3.6
6.6 6.7 6.4 5.9 6.0 6.1 4.2 3.6 2.6 3.9 4.6 4.6 5.0 5.2 5.6 6.1 6.7 6.2 5.7 5.1 5.1 4.7 2.6 3.0 2.9 2.8 3.2 3.6 3.2 3.2 2.8 2.8 3.3 2.9 2.6 2.9 3.7 3.8 3.6 4.2 4.6 4.7 5.4
6.8 6.6 6.2 6.6 6.5 6.0 5.7 5.8 5.1 2.7 2.2 2.7 4.1 4.9 5.7 5.8 6.1 6.4 6.0 4.9 3.3 3.3 3.1 3.4 3.8 4.2 4.3 4.1 4.3 4.0 3.1 2.2 2.3 3.3 3.0 3.1 2.9 4.2 4.1 4.5 4.2 2.3 4.5
6.0 6.4 6.6 4.7 4.6 5.5 4.3 5.0 5.0 3.8 2.8 1.8 2.5 2.5 3.3 5.4 4.7 4.6 4.3 2.3 2.6 3.2 3.7 3.5 3.4 3.5 3.8 3.5 2.6 2.0 2.0 1.9 1.6 1.6 1.7 2.6 0.7 2.4 3.0 3.2 3.6 2.2 3.6
5.6 5.8 6.0 5.6 5.3 4.6 4.1 4.6 4.2 3.0 1.8 1.3 2.0 1.9 1.3 2.8 1.7 1.5 1.7 1.9 2.5 3.0 3.2 3.0 3.0 2.7 2.8 3.1 1.6 1.7 2.1 1.6 1.2 1.2 0.5 1.2 1.5 2.4 1.8 3.1 2.9 1.9 4.1
4.6 3.7 5.6 5.0 4.6 5.3 5.0 5.0 5.5 3.0 0.8 0.2 0.1 0.3 2.7 2.7 2.0 1.2 2.1 2.2 2.3 2.5 2.0 1.8 1.5 1.2 1.3 1.3 1.5 -0.1 -0.3 -0.9 -0.2 0.1 0.6 1.5 1.7 1.7 3.6 3.8 3.2 4.9 4.9
5.2 6.1 5.8 4.5 4.7 5.1 5.7 5.1 4.6 4.8 5.1 3.3 2.4 4.2 3.8 2.7 2.5 2.1 1.4 0.0 -1.0 1.7 1.4 0.9 0.5 0.3 1.1 0.1 -0.8 -2.1 -2.7 -3.2 -1.4 -1.8 -1.4 0.1 2.0 2.0 3.2 4.3 2.6 1.6 3.4
5.5 4.8 5.6 5.2 6.4 4.9 3.2 4.5 4.5 4.1 3.5 3.8 3.9 3.9 2.9 1.9 2.2 2.1 2.4 1.0 1.1 1.3 1.5 0.7 -0.2 -0.4 0.0 -0.4 -0.7 -1.3 -3.0 -4.3 -2.0 -2.6 -4.1 -2.4 0.9 -0.4 -1.0 1.2 2.5 2.6 3.0
5.3 5.4 6.6 3.6 2.8 3.7 3.4 1.1 1.3 3.6 5.4 4.4 3.0 2.0 2.1 2.5 1.0 -0.5 -1.7 1.5 2.4 1.9 2.0 2.0 2.5 2.2 0.2 -0.5 -0.5 -0.7 -0.7 -1.0 -1.1 -1.1 -1.3 -3.5 -1.1 0.5 -1.8 0.2 0.6 0.3 0.7
4.0 5.0 4.6 4.7 4.0 5.2 4.2 4.6 3.0 3.6 2.2 2.7 3.6 3.4 4.7 5.1 5.2 0.8 -0.5 2.6 3.1 2.9 2.5 2.8 2.4 1.5 0.3 0.1 -0.2 -0.6 -0.6 -0.6 -0.8 -0.9 -1.0 -1.1 -2.4 0.6 0.4 0.2 -0.2 1.8 1.6
4.7 4.2 4.5 4.8 3.8 2.5 3.7 4.5 3.6 2.7 3.0 3.3 3.7 3.6 3.9 3.3 1.6 3.1 2.1 2.9 2.4 3.3 2.6 2.6 3.1 1.0 0.6 -0.2 -0.4 -0.6 -0.7 -0.7 -0.7 -0.4 -0.4 -0.3 -1.1 -2.8 -2.5 -1.7 -0.4 -0.7 2.3
Wind_Speed
1 3 3 3 6 11 10 11 11 11 11 11 10 9 9 9 7 8 6 9 12 11 10 11 10 7 4 4 4 3 4 4 4 1 4 4 5 6 6 16 18 17 19
15 4 5 1 5 11 12 11 12 11 10 10 10 10 10 8 9 7 8 6 9 11 11 10 9 6 6 5 4 6 5 5 5 8 4 3 5 6 5 6 8 12 16
17 3 2 5 3 8 11 11 12 11 11 10 9 9 9 9 10 9 9 9 8 9 10 11 9 9 7 4 6 7 5 4 4 4 5 4 4 3 5 5 5 8 15
16 15 13 3 4 6 8 10 11 10 11 9 10 9 10 10 10 10 9 9 9 8 7 9 9 10 10 9 8 7 4 4 4 4 5 4 4 4 3 5 7 5 8
16 16 15 12 9 9 10 6 9 8 9 10 10 7 5 4 1 9 10 9 9 8 8 8 8 10 12 11 7 10 8 8 4 3 3 3 3 3 6 5 6 2 2
16 17 16 13 13 12 11 13 11 9 10 12 11 9 8 5 8 5 3 8 8 9 9 11 9 3 5 10 4 11 6 9 8 6 6 6 8 1 2 0 0 1 2
17 17 15 14 12 13 14 14 15 13 12 13 12 11 9 6 7 3 3 6 7 8 7 5 6 5 6 7 15 16 16 16 9 2 3 1 2 3 3 2 1 1 1
16 17 17 14 13 14 15 13 16 13 13 12 12 11 9 10 16 15 17 12 12 12 10 9 8 6 6 3 10 11 11 11 9 8 9 7 4 2 2 2 2 1 4
16 14 15 15 14 13 14 12 12 14 13 14 12 13 12 11 15 13 14 12 13 13 12 12 8 7 11 4 11 13 12 10 19 23 21 19 19 20 15 2 1 1 2
13 13 13 11 12 13 13 11 12 13 14 11 14 14 17 13 18 15 11 8 12 9 9 12 19 13 18 16 8 10 12 7 6 8 7 12 15 15 21 10 3 2 2
11 12 13 10 14 10 11 8 10 11 12 13 14 13 14 14 15 22 17 8 8 10 9 9 9 18 21 22 16 8 8 8 8 8 6 7 7 8 7 11 10 4 4
11 11 13 12 10 10 11 10 10 10 12 11 11 9 9 13 16 21 26 20 13 10 10 7 12 20 25 19 14 13 11 8 6 7 7 6 5 4 2 6 12 12 13
11 11 11 12 12 12 11 11 7 11 8 8 8 8 7 7 7 19 21 19 19 15 5 19 21 19 24 17 20 15 9 6 6 7 6 4 1 1 3 3 8 10 10
8 9 9 10 11 11 9 10 8 8 8 7 8 8 7 7 6 5 6 6 11 10 11 10 10 13 13 10 9 9 7 5 3 4 3 2 2 3 4 2 2 2 3
8 6 7 7 9 10 11 9 9 11 9 7 7 7 7 7 7 10 8 6 7 9 8 7 6 6 8 7 7 7 6 5 5 4 4 3 4 4 5 4 3 3 4
8 7 7 4 4 5 7 8 21 19 21 21 19 10 6 14 16 17 17 17 16 12 8 7 6 6 7 6 5 6 5 6 5 5 5 5 5 4 5 5 5 3 3
7 7 5 6 5 4 4 5 7 11 19 19 19 19 19 14 14 17 18 19 17 13 8 7 6 6 6 5 5 5 5 4 6 6 6 6 5 5 6 5 4 4 4
6 7 4 5 4 4 4 3 2 2 4 4 13 13 17 18 18 15 15 13 9 10 7 6 6 5 5 5 5 5 5 5 6 6 6 5 4 4 4 5 5 3 3
5 5 4 3 4 4 3 4 5 6 5 3 4 6 7 16 18 19 18 7 6 6 6 7 6 6 5 6 5 5 5 5 4 3 4 5 3 3 3 3 4 4 5
3 6 5 3 3 2 3 3 4 4 3 3 3 3 3 6 7 7 7 6 6 6 5 6 6 6 5 4 4 4 5 6 5 5 5 5 4 3 3 3 4 3 4
2 3 5 4 4 3 3 3 5 4 2 2 2 2 6 6 5 5 5 6 6 6 5 5 5 5 4 5 5 6 6 5 6 5 5 5 5 4 4 3 3 4 3
3 3 4 2 2 5 5 4 4 4 3 2 2 5 9 4 4 4 4 4 3 6 9 7 5 6 8 6 6 4 5 4 5 5 5 5 5 4 4 5 3 3 3
4 4 3 3 4 4 4 4 4 3 3 3 3 4 4 3 3 4 5 3 7 10 14 15 11 9 13 13 15 11 5 2 6 10 3 4 5 3 3 3 2 3 2
4 4 3 3 2 3 3 2 2 4 4 3 3 3 3 3 3 3 3 8 9 11 13 12 12 10 13 14 14 13 11 11 12 12 12 6 4 6 3 2 2 3 2
4 4 4 4 4 4 3 3 3 3 3 3 3 2 3 3 4 3 4 9 8 7 8 10 8 9 13 11 10 9 8 8 10 11 13 12 5 5 4 2 2 3 3
4 4 3 3 4 3 4 4 4 3 3 3 3 3 3 3 2 3 5 7 6 8 6 8 5 12 12 10 9 8 8 9 9 10 11 11 5 3 2 2 4 2 2
Wind_Direction
313 221 156 194 177 172 144 146 151 152 162 177 178 173 180 166 144 164 151 156 154 155 159 168 177 169 183 212 193 185 170 139 197 231 242 197 187 202 217 218 227 228 239
338 274 207 162 168 157 146 147 150 157 165 179 173 173 183 171 153 162 157 171 164 164 169 174 182 174 195 197 196 206 201 190 192 239 219 205 198 206 203 197 224 226 228
350 274 212 85 118 150 147 145 148 155 169 171 170 177 179 182 164 174 179 170 180 184 182 188 187 186 198 193 203 207 191 195 193 195 237 225 212 189 223 248 233 247 250
5 9 10 344 113 174 139 142 143 157 158 167 170 178 185 188 178 175 180 179 183 191 187 196 187 189 206 211 206 225 209 194 188 197 214 221 206 226 208 248 264 240 257
14 15 7 5 30 53 43 112 134 148 162 170 168 181 176 149 123 184 177 182 183 190 193 195 194 201 207 218 212 233 225 218 196 188 193 219 211 213 233 232 238 263 97
16 19 5 17 35 40 46 54 56 60 62 68 67 78 74 67 1 353 187 181 184 191 201 209 208 111 92 66 89 68 47 222 217 210 222 229 243 158 48 68 162 154 232
25 14 10 14 38 47 53 59 55 56 57 64 60 56 41 19 3 26 70 74 79 62 49 65 96 67 61 100 80 77 63 52 40 334 241 27 56 20 326 292 167 58 45
35 22 7 7 38 50 58 60 66 58 57 56 52 42 33 36 50 74 83 82 75 63 57 51 59 42 35 91 99 83 69 58 51 60 67 65 59 10 229 331 341 107 89
19 23 20 2 18 42 55 62 79 77 65 58 50 44 34 29 44 68 85 86 80 72 60 56 54 39 18 110 115 105 90 77 73 81 81 70 50 39 34 131 21 197 111
20 15 26 16 21 29 42 33 64 70 75 72 63 52 37 39 35 53 78 95 92 82 67 58 53 63 56 59 94 116 113 113 102 82 65 60 57 42 44 45 347 87 86
20 23 25 13 35 22 45 35 54 63 74 69 64 58 51 34 45 54 58 65 88 86 70 61 51 58 71 77 73 67 88 108 104 96 92 74 62 54 52 52 47 65 86
32 27 27 26 37 31 37 41 38 57 58 61 65 54 52 51 48 61 65 62 64 81 82 79 70 63 63 67 80 87 80 77 87 82 79 71 66 67 40 66 76 81 87
46 41 36 33 30 34 36 35 40 45 55 58 59 56 49 49 45 61 67 76 77 72 79 72 67 57 60 53 55 57 64 72 70 73 76 77 45 346 93 122 88 75 61
54 54 49 52 48 40 46 47 41 45 55 54 58 58 56 54 26 33 53 67 76 92 76 79 69 67 62 57 48 38 41 38 51 87 95 18 18 33 41 27 61 87 79
37 57 73 57 56 58 59 54 57 55 54 61 51 54 57 60 56 58 59 59 62 62 71 73 75 75 76 63 51 42 38 41 49 34 42 56 38 34 41 29 46 49 76
31 27 30 69 73 67 70 67 65 66 63 62 60 57 50 69 72 76 77 76 76 78 74 73 63 63 71 68 61 54 45 43 40 45 39 40 54 47 46 38 39 42 63
37 30 29 31 35 75 84 80 77 59 69 63 61 61 59 60 74 78 71 70 67 67 69 69 67 59 62 65 64 57 52 42 52 48 42 33 45 44 53 50 42 36 23
23 34 27 25 31 37 46 97 93 65 58 28 38 47 58 59 61 71 77 70 62 55 57 58 60 59 58 62 61 60 53 43 42 47 45 36 14 48 53 47 40 21 28
30 16 23 22 25 30 33 56 75 70 62 36 14 11 21 65 60 58 57 60 67 67 64 59 49 46 48 50 46 48 47 46 38 42 26 33 23 42 28 32 29 40 41
26 25 33 33 25 23 49 74 90 86 80 65 38 350 360 58 53 46 44 48 56 60 62 64 53 46 38 43 37 48 53 40 34 29 19 15 9 26 26 38 39 25 43
355 34 63 49 32 7 42 60 105 96 84 54 17 4 66 84 74 63 59 52 50 49 51 63 53 45 37 39 49 52 54 42 31 26 23 10 4 18 360 26 49 48 58
25 15 47 48 30 46 41 33 58 97 112 82 35 56 58 63 63 65 69 73 59 65 62 62 55 42 38 51 50 53 52 33 19 15 11 3 2 19 14 24 19 25 30
26 34 48 43 44 65 57 45 52 72 84 85 84 79 72 75 76 72 60 59 68 68 76 73 70 60 64 73 70 69 69 40 22 24 10 347 351 6 15 19 357 20 19
20 33 36 44 44 53 78 68 67 77 81 86 84 79 86 88 93 85 75 68 74 73 95 99 86 74 85 93 79 67 54 38 27 17 13 11 335 346 344 16 2 4 341
33 28 30 39 46 37 40 62 66 63 75 82 81 85 88 89 102 91 75 76 76 65 112 97 103 80 109 93 76 63 50 32 13 8 5 3 345 353 12 19 360 343 3
18 32 42 41 43 45 49 41 52 50 52 59 64 57 78 88 88 99 91 72 49 26 96 117 96 124 103 88 74 63 34 16 11 359 355 360 348 340 7 352 7 1 349